• In Lithuania
  • List of Countries
  • For 7 days
  • Water Temperature
  • Satellite Maps
  • Weather Map
  • Weather Widgets
  • user-avatar
    Login

    Hourly Weather Levopadinskiy

    Today, 15 August, Wednesday

    Time Temperature Precipitation Wind Pressure Humidity
    00:00 +25°C° 0 mm 2 mps 750 mmHg 48%
    01:00 +24°C° 0 mm 2 mps 750 mmHg 51%
    02:00 +23°C° 0 mm 2 mps 750 mmHg 55%
    03:00 +23°C° 0 mm 2 mps 750 mmHg 58%
    04:00 +23°C° 0 mm 2 mps 750 mmHg 59%
    05:00 +23°C° 0 mm 1 mps 750 mmHg 60%
    06:00 +23°C° 0 mm 1 mps 750 mmHg 61%
    07:00 +25°C° 0 mm 1 mps 751 mmHg 54%
    08:00 +27°C° 0 mm 1 mps 751 mmHg 47%
    09:00 +27°C° 0 mm 0 mps 751 mmHg 40%
    10:00 +31°C° 0 mm 1 mps 751 mmHg 37%
    11:00 +32°C° 0 mm 2 mps 751 mmHg 33%
    12:00 +34°C° 0 mm 3 mps 750 mmHg 29%
    13:00 +35°C° 0 mm 3 mps 750 mmHg 28%
    14:00 +35°C° 0 mm 4 mps 750 mmHg 27%
    15:00 +35°C° 0 mm 4 mps 750 mmHg 26%
    16:00 +35°C° 0 mm 4 mps 750 mmHg 28%
    17:00 +34°C° 0 mm 4 mps 750 mmHg 30%
    18:00 +33°C° 0 mm 4 mps 750 mmHg 32%
    19:00 +32°C° 0 mm 5 mps 750 mmHg 36%
    20:00 +29°C° 0 mm 5 mps 750 mmHg 39%
    21:00 +27°C° 0 mm 5 mps 751 mmHg 43%
    22:00 +26°C° 0 mm 4 mps 751 mmHg 47%
    23:00 +26°C° 0 mm 3 mps 750 mmHg 52%

    Tomorrow, 16 August, Thursday

    Time Temperature Precipitation Wind Pressure Humidity
    00:00 +25°C° 0 mm 3 mps 750 mmHg 56%
    01:00 +24°C° 0 mm 3 mps 750 mmHg 59%
    02:00 +22°C° 0 mm 3 mps 750 mmHg 62%
    03:00 +23°C° 0 mm 2 mps 750 mmHg 64%
    04:00 +22°C° 0 mm 3 mps 750 mmHg 66%
    05:00 +22°C° 0 mm 3 mps 750 mmHg 67%
    06:00 +22°C° 0 mm 3 mps 750 mmHg 69%
    07:00 +25°C° 0 mm 4 mps 750 mmHg 62%
    08:00 +27°C° 0 mm 5 mps 750 mmHg 55%
    09:00 +29°C° 0 mm 6 mps 750 mmHg 48%
    10:00 +30°C° 0 mm 6 mps 750 mmHg 44%
    11:00 +33°C° 0 mm 7 mps 749 mmHg 39%
    12:00 +34°C° 0 mm 7 mps 749 mmHg 35%
    13:00 +35°C° 0 mm 7 mps 749 mmHg 33%
    14:00 +35°C° 0 mm 7 mps 748 mmHg 32%
    15:00 +36°C° 0 mm 7 mps 748 mmHg 30%
    16:00 +35°C° 0 mm 7 mps 748 mmHg 33%
    17:00 +34°C° 0 mm 6 mps 748 mmHg 35%
    18:00 +33°C° 0 mm 6 mps 748 mmHg 38%
    19:00 +32°C° 0 mm 6 mps 748 mmHg 42%
    20:00 +29°C° 0 mm 6 mps 748 mmHg 47%
    21:00 +28°C° 0 mm 6 mps 749 mmHg 51%
    22:00 +27°C° 0 mm 5 mps 749 mmHg 56%
    23:00 +26°C° 0 mm 5 mps 748 mmHg 60%

    Day after tomorrow, 17 August, Friday

    Time Temperature Precipitation Wind Pressure Humidity
    00:00 +26°C° 0 mm 4 mps 748 mmHg 65%
    01:00 +25°C° 0 mm 4 mps 748 mmHg 68%
    02:00 +25°C° 0 mm 3 mps 748 mmHg 71%
    03:00 +24°C° 0 mm 3 mps 748 mmHg 74%
    04:00 +24°C° 0 mm 2 mps 748 mmHg 74%
    05:00 +24°C° 0 mm 2 mps 748 mmHg 74%
    06:00 +24°C° 0 mm 2 mps 748 mmHg 75%
    07:00 +26°C° 0 mm 2 mps 748 mmHg 67%
    08:00 +27°C° 0 mm 2 mps 748 mmHg 60%
    09:00 +29°C° 0 mm 3 mps 748 mmHg 52%
    10:00 +31°C° 0 mm 3 mps 747 mmHg 47%
    11:00 +33°C° 0 mm 3 mps 747 mmHg 42%
    12:00 +35°C° 0 mm 3 mps 747 mmHg 37%
    13:00 +36°C° 0 mm 3 mps 747 mmHg 35%
    14:00 +37°C° 0 mm 3 mps 746 mmHg 32%
    15:00 +37°C° 0 mm 3 mps 746 mmHg 30%
    16:00 +37°C° 0 mm 3 mps 746 mmHg 32%
    17:00 +36°C° 0 mm 3 mps 746 mmHg 33%
    18:00 +36°C° 0 mm 3 mps 746 mmHg 35%
    19:00 +34°C° 0 mm 3 mps 746 mmHg 40%
    20:00 +31°C° 0 mm 3 mps 746 mmHg 45%
    21:00 +29°C° 0 mm 3 mps 746 mmHg 50%
    22:00 +29°C° 0.1 mm 3 mps 746 mmHg 57%
    23:00 +28°C° 0.1 mm 2 mps 746 mmHg 63%

    18 August, Saturday

    Time Temperature Precipitation Wind Pressure Humidity
    00:00 +27°C° 0.1 mm 2 mps 746 mmHg 69%
    01:00 +26°C° 0.1 mm 2 mps 746 mmHg 72%
    02:00 +26°C° 0.1 mm 2 mps 746 mmHg 75%
    03:00 +26°C° 0.1 mm 2 mps 746 mmHg 79%
    04:00 +26°C° 0.1 mm 2 mps 746 mmHg 78%
    05:00 +25°C° 0.1 mm 2 mps 746 mmHg 78%
    06:00 +25°C° 0.1 mm 2 mps 746 mmHg 77%
    07:00 +27°C° 0.3 mm 3 mps 747 mmHg 69%
    08:00 +28°C° 0.3 mm 3 mps 747 mmHg 62%
    09:00 +29°C° 0.3 mm 3 mps 747 mmHg 54%
    10:00 +30°C° 0.2 mm 4 mps 747 mmHg 48%
    11:00 +33°C° 0.2 mm 4 mps 747 mmHg 42%
    12:00 +34°C° 0.2 mm 5 mps 746 mmHg 36%
    13:00 +34°C° 0.5 mm 5 mps 746 mmHg 36%
    14:00 +34°C° 0.5 mm 5 mps 746 mmHg 35%
    15:00 +34°C° 0.5 mm 5 mps 746 mmHg 34%
    16:00 +34°C° 0 mm 4 mps 747 mmHg 35%
    17:00 +34°C° 0 mm 3 mps 747 mmHg 37%
    18:00 +32°C° 0 mm 2 mps 747 mmHg 39%
    19:00 +31°C° 0 mm 2 mps 747 mmHg 41%
    20:00 +29°C° 0 mm 2 mps 748 mmHg 44%
    21:00 +28°C° 0 mm 2 mps 748 mmHg 47%
    22:00 +27°C° 0.1 mm 2 mps 748 mmHg 50%
    23:00 +27°C° 0.1 mm 2 mps 748 mmHg 54%

    19 August, Sunday

    Time Temperature Precipitation Wind Pressure Humidity
    00:00 +26°C° 0.1 mm 2 mps 748 mmHg 58%
    01:00 +26°C° 0 mm 2 mps 748 mmHg 58%
    02:00 +25°C° 0 mm 2 mps 748 mmHg 57%
    03:00 +25°C° 0 mm 2 mps 748 mmHg 57%
    04:00 +25°C° 0 mm 2 mps 748 mmHg 57%
    05:00 +24°C° 0 mm 2 mps 749 mmHg 58%
    06:00 +24°C° 0 mm 2 mps 749 mmHg 59%
    07:00 +26°C° 0 mm 3 mps 749 mmHg 54%
    08:00 +27°C° 0 mm 3 mps 749 mmHg 49%
    09:00 +29°C° 0 mm 4 mps 749 mmHg 44%
    10:00 +30°C° 0 mm 4 mps 749 mmHg 41%
    11:00 +32°C° 0 mm 5 mps 749 mmHg 38%
    12:00 +33°C° 0 mm 5 mps 749 mmHg 34%
    13:00 +33°C° 0 mm 5 mps 749 mmHg 34%
    14:00 +34°C° 0 mm 5 mps 749 mmHg 33%
    15:00 +34°C° 0 mm 5 mps 749 mmHg 32%
    16:00 +33°C° 0 mm 5 mps 749 mmHg 34%
    17:00 +32°C° 0 mm 5 mps 749 mmHg 35%
    18:00 +30°C° 0 mm 5 mps 749 mmHg 37%
    19:00 +29°C° 0 mm 4 mps 749 mmHg 39%
    20:00 +27°C° 0 mm 4 mps 749 mmHg 41%
    21:00 +26°C° 0 mm 4 mps 750 mmHg 43%
    22:00 +25°C° 0 mm 4 mps 750 mmHg 45%
    23:00 +24°C° 0 mm 3 mps 750 mmHg 48%

    20 August, Monday

    Time Temperature Precipitation Wind Pressure Humidity
    00:00 +24°C° 0 mm 3 mps 750 mmHg 51%
    01:00 +22°C° 0 mm 3 mps 750 mmHg 52%
    02:00 +21°C° 0 mm 3 mps 749 mmHg 54%
    03:00 +21°C° 0 mm 3 mps 749 mmHg 56%
    04:00 +21°C° 0 mm 3 mps 750 mmHg 57%
    05:00 +20°C° 0 mm 3 mps 750 mmHg 58%
    06:00 +20°C° 0 mm 3 mps 750 mmHg 59%
    07:00 +22°C° 0 mm 3 mps 750 mmHg 52%
    08:00 +23°C° 0 mm 4 mps 750 mmHg 44%
    09:00 +26°C° 0 mm 5 mps 750 mmHg 37%
    10:00 +27°C° 0 mm 5 mps 750 mmHg 34%
    11:00 +28°C° 0 mm 5 mps 750 mmHg 30%
    12:00 +29°C° 0 mm 5 mps 750 mmHg 26%
    13:00 +30°C° 0 mm 5 mps 750 mmHg 25%
    14:00 +30°C° 0 mm 5 mps 750 mmHg 24%
    15:00 +30°C° 0 mm 5 mps 750 mmHg 22%
    16:00 +30°C° 0 mm 4 mps 750 mmHg 24%
    17:00 +29°C° 0 mm 4 mps 750 mmHg 26%
    18:00 +28°C° 0 mm 4 mps 750 mmHg 28%
    19:00 +27°C° 0 mm 4 mps 750 mmHg 30%
    20:00 +25°C° 0 mm 5 mps 750 mmHg 33%
    21:00 +23°C° 0 mm 5 mps 751 mmHg 35%
    22:00 +22°C° 0 mm 4 mps 751 mmHg 41%
    23:00 +21°C° 0 mm 4 mps 751 mmHg 48%
    Show more